Weather History for Hill City, KS

Change the Weather History Date:

Sunday, January 29, 2012

  Actual Average Record
Temperature  
Mean Temperature 41 °F 30 °F  
Max Temperature 63 °F 42 °F 72 °F (2008)
Min Temperature 18 °F 17 °F -11 °F (1916)
Degree Days  
Heating Degree Days 24    
Moisture  
Dew Point 10 °F    
Average Humidity 30    
Maximum Humidity 55    
Minimum Humidity 14    
Precipitation  
Precipitation 0.00 in 0.02 in 0.04 in (2013)
Month to date precipitation 0.01 0.40  
Year to date precipitation 0.01 0.40  
Sea Level Pressure  
Sea Level Pressure 30.17 in    
Wind  
Wind Speed 10 mph (WSW)    
Max Wind Speed 15 mph    
Max Gust Speed 25 mph    
Visibility 10 miles    
Events      
T = Trace of Precipitation, MM = Missing Value Source: NWS Daily Summary

Daily Weather History Graph

Daily Weather History Graph

Search for Another Location

Airport:

Trip Planner

Search our weather history database for the weather conditions in past years. The results will help you decide how hot, cold, wet, or windy it might be!

Date:

Astronomy

Jan. 29, 2012 Rise Set
Actual Time 7:49 AM CST 5:55 PM CST
Civil Twilight 7:20 AM CST 6:24 PM CST
Nautical Twilight 6:48 AM CST 6:56 PM CST
Astronomical Twilight 6:17 AM CST 7:28 PM CST
Moon 10:43 AM CST (1/29) No Moon Set
Length of Visible Light 11h 03m
Length of Day
10h 06m
Waxing Crescent, 37% of the Moon is Illuminated
Jan 29
Waxing Crescent
Jan 30
First Quarter
Feb 7
Full
Feb 14
Last Quarter
Feb 21
New

Hourly Weather History & Observations

Time (CST) Temp. Windchill Dew Point Humidity Pressure Visibility Wind Dir Wind Speed Gust Speed Precip Events Conditions
12:53 AM 21.0 °F 11.4 °F 3.0 °F 46% 30.28 in 10.0 mi WSW 8.1 mph - N/A   Clear
1:53 AM 23.0 °F 13.9 °F 3.0 °F 42% 30.26 in 10.0 mi West 8.1 mph - N/A   Clear
2:53 AM 28.0 °F 18.6 °F 3.0 °F 34% 30.26 in 10.0 mi West 10.4 mph - N/A   Clear
3:53 AM 25.0 °F 17.1 °F 3.0 °F 39% 30.27 in 10.0 mi West 6.9 mph - N/A   Clear
4:53 AM 25.0 °F 14.8 °F 3.9 °F 41% 30.26 in 10.0 mi West 10.4 mph - N/A   Clear
6:53 AM 24.1 °F 15.2 °F 8.1 °F 51% 30.29 in 10.0 mi West 8.1 mph - N/A   Clear
7:53 AM 23.0 °F 13.9 °F 9.0 °F 55% 30.30 in 10.0 mi West 8.1 mph - N/A   Clear
8:53 AM 28.0 °F 19.3 °F 12.0 °F 51% 30.31 in 10.0 mi West 9.2 mph - N/A   Mostly Cloudy
9:53 AM 39.0 °F 32.3 °F 12.9 °F 34% 30.27 in 10.0 mi West 10.4 mph - N/A   Scattered Clouds
11:53 AM 53.1 °F - 12.0 °F 20% 30.22 in 10.0 mi SW 13.8 mph - N/A   Clear
12:53 PM 57.0 °F - 10.9 °F 16% 30.18 in 10.0 mi WSW 15.0 mph 21.9 mph N/A   Clear
1:53 PM 59.0 °F - 10.0 °F 14% 30.13 in 10.0 mi SW 13.8 mph 24.2 mph N/A   Partly Cloudy
2:53 PM 61.0 °F - 12.0 °F 15% 30.09 in 10.0 mi WSW 13.8 mph 25.3 mph N/A   Scattered Clouds
3:53 PM 62.1 °F - 14.0 °F 15% 30.08 in 10.0 mi WSW 12.7 mph - N/A   Clear
4:53 PM 61.0 °F - 12.0 °F 15% 30.07 in 10.0 mi SW 12.7 mph - N/A   Clear
5:53 PM 55.0 °F - 12.9 °F 19% 30.08 in 10.0 mi WSW 5.8 mph - N/A   Clear
6:53 PM 48.9 °F - 12.9 °F 24% 30.08 in 10.0 mi SW 8.1 mph - N/A   Clear
8:53 PM 46.0 °F 43.9 °F 12.9 °F 26% 30.07 in 10.0 mi West 4.6 mph - N/A   Clear
9:53 PM 46.9 °F - 12.9 °F 25% 30.04 in 10.0 mi SW 13.8 mph - N/A   Clear
10:53 PM 48.9 °F - 12.9 °F 24% 30.00 in 10.0 mi WSW 10.4 mph - N/A   Clear
11:53 PM 48.9 °F - 14.0 °F 25% 29.99 in 10.0 mi WSW 13.8 mph 21.9 mph N/A   Clear